Regional Weather Roundup
Issued by NWS Charleston, SC

Current Version | Previous Version | Graphics & Text | Print | Product List | Glossary On
Versions: 1 2 3 4 5 6 7 8 9 10 11 12 13 14 15 16 17 18 19 20 21 22 23 24 25 26 27 28 29 30 31 32 33 34 35 36 37 38 39 40 41 42 43 44 45 46 47 48 49 50
000
ASUS42 KCHS 291410
RWRCHS

REGIONAL WEATHER ROUNDUP
NATIONAL WEATHER SERVICE CHARLESTON SC
900 AM EST MON DEC 29 2014

NOTE: "FAIR" INDICATES FEW OR NO CLOUDS BELOW 12,000 FEET WITH NO
SIGNIFICANT WEATHER AND/OR OBSTRUCTIONS TO VISIBILITY.

NOT ALL STATIONS ARE QUALITY CONTROLLED BY THE NATIONAL
WEATHER SERVICE. USE DATA WITH CAUTION...ESPECIALLY
DEWPOINT OBSERVATIONS.

SCZ027-030-031-034>040-042>050-291500-
...SOUTHEAST SOUTH CAROLINA...

CITY           SKY/WX    TMP DP  RH WIND       PRES   REMARKS
N CHARLESTON   PTSUNNY   64  62  93 W8        30.07R FOG
WATERFRONT PRK   N/A     63 N/A N/A SW6         N/A
MOUNT PLEASANT CLOUDY    63  63 100 SW7       30.07S FOG
PINOPOLIS        N/A     64  61  88 SW8       29.97S
MONCKS CORNER  CLOUDY    64  63  94 SW7       30.05S
SUMMERVILLE    CLOUDY    63  63 100 S6        30.06S
BEAUFORT MCAS  CLOUDY    65  62  90 S7        30.07R
BEAUFORT ARPT  PTSUNNY   63  63 100 SW3       30.07R FOG
HILTON HEAD IS PTSUNNY   64  63  94 SW5       30.09R
WALTERBORO     CLOUDY    64 N/A N/A S7        30.06S
ALLENDALE      CLOUDY    63  61  94 NW7       30.06R

...SOUTHERN MIDLANDS AND PEE DEE...

CITY           SKY/WX    TMP DP  RH WIND       PRES   REMARKS
GEORGETOWN     NOT AVBL
KINGSTREE      NOT AVBL
ORANGEBURG     CLOUDY    60  57  89 N8        30.07R FOG
BARNWELL         N/A     59  59 100 N8        30.07R
AIKEN          CLOUDY    55  55 100 NE7       30.10S
MANNING        CLOUDY    63 N/A N/A SW3       30.05R
COLUMBIA       LGT RAIN  57  57 100 NE7       30.06F
SUMTER         LGT RAIN  58  56  94 N16       30.03S FOG
FLORENCE       LGT RAIN  60  57  89 N14       30.07R FOG
MYRTLE BEACH   PTSUNNY   61  57  88 S6        30.07R FOG
N MYRTLE BEACH CLOUDY    59  58  96 CALM      30.06R FOG

$$

GAZ063-065-086>088-099>101-113>116-118-119-134>141-150-291500-
...SOUTHEAST GEORGIA...

CITY           SKY/WX    TMP DP  RH WIND       PRES   REMARKS
SAVANNAH ARPT  CLOUDY    66  62  87 SW8       30.08R
HUNTER AAF     CLOUDY    65  65 100 SW6       30.07R
FORT STEWART   CLOUDY    65  63  91 S6        30.07R
STATESBORO     CLOUDY    62  62 100 NW7       30.08R
SYLVANIA       CLOUDY    62  61  97 N8        30.08R
CLAXTON        DRIZZLE   63  63 100 W7        30.08R

...CSRA...CENTRAL AND FAR SOUTHEAST GEORGIA...

CITY           SKY/WX    TMP DP  RH WIND       PRES   REMARKS
THOMSON        PTSUNNY   59  59 100 E5        30.10F
AUGUSTA-BUSH   CLOUDY    59  56  89 NE7       30.07R
AUGUSTA-DANIEL LGT RAIN  59  55  87 N10       30.07S
SWAINSBORO     LGT RAIN N/A N/A N/A CALM      30.10R
VIDALIA        RAIN      61  59  94 N3        30.09R
EASTMAN        LGT RAIN  58  58 100 CALM      30.12R
HAZLEHURST     DRIZZLE   61  61 100 N5        30.10R
ALMA           CLOUDY    66  64  93 S3        30.08R
WAYCROSS       CLOUDY    69  68  96 SW5       30.09R
JESUP          CLOUDY    68  66  94 SW3       30.09R
BAXLEY         DRIZZLE   68  64  88 SW3       30.08R
BRUNSWICK      CLOUDY    64  63  94 SW8       30.11R
SAINT SIMONS   CLOUDY    64  62  93 SW6       30.10R

$$

SCZ027-028-034-036>038-045-046-048>050-GAZ119-141-291500-
...LAKE AND SUPPLEMENTAL COASTAL OBSERVATIONS...

STATION/POSITION TIME  TEMP    WIND        PRES    WAVE   SWELL
                       AIR SEA DIR/SP/G            HT/PER HT/PER/DIR
                 (UTC) (F)     (DEG/KT/KT) (MB)    (FT/S) (FT/S/D)
UPR LAKE MARION  NOT AVBL
WINYAH BAY       1300   58     170/  3     1016.0S
LAKE MURRAY      1300   56      40/  2/  4 1017.6S
ACE BASIN NERRS  1300   62     250/  3     1018.0R
FORT PULASKI     1400   63 57  190/  3/  4 1019.0R
SAPELO ISLAND    1300   61     230/  2     1018.0S

$$

ANZ835-935-AMZ111-154-330-350-352-354-370-450-454-472-291500-
...C-MAN AND BUOY OBSERVATIONS...

STATION/POSITION TIME  TEMP    WIND        PRES    WAVE   SWELL
                       AIR SEA DIR/SP/G            HT/PER HT/PER/DIR
                 (UTC) (F)     (DEG/KT/KT) (MB)    (FT/S) (FT/S/D)
BUOY 41004       1400   70 72  220/ 17/ 19 1017.4R   3/ 4   2/12
BUOY 41008       1400   61 58  210/  8/ 10 1019.1R   2/14   2/ 80/14
FOLLY BEACH CMAN 1300   58     250/  7/  9 1018.2R
CAPERS NEARSHORE 1300   58     210/  8/ 10   N/A
FRIPP NEARSHORE  NOT AVBL


STATION/POSITION TIME  TEMP    WIND        PRES    WAVE   SWELL
                       AIR SEA DIR/SP/G            HT/PER HT/PER/DIR
                 (UTC) (F)     (DEG/KT/KT) (MB)    (FT/S) (FT/S/D)
5E ST. MARYS GA  1400      61                N/A     2/13   2/110/13
FRYING PAN BUOY  1400   68 68  250/  6/  8 1018.1R   3/ 5   2/160/ 5
BUOY 41025       1400   63                 1017.7R   2/13
CAPE LOOKOUT NC  1300   60     360/  6/  6 1018.0R
BUOY 41002       1341   74 75  220/ 17/ 21 1020.5R
BUOY 41010       1400   76 77  180/ 14/ 16 1020.5R   3/12   3/ 90/12
ST AUGUSTINE FL  1400   64     290/  6/  7 1020.7R


$$


USA.gov is the U.S. government's official web portal to all federal, state and local government web resources and services.